Location: Clanezzo
(45.7500°N, 9.6000°E)
Time: 21:32:48
(UTC+00:00)

SPROUT - Pass Details

Date: 05 July 2022
Orbit: 588 x 598 km, 97.9° (Epoch: 16 August)

Event Time Altitude Azimuth Distance (km) Brightness Sun altitude
Exits shadow 00:56:28 27° 254° (WSW) 1,146 ? -18.4°
Maximum altitude 00:56:53 27° 265° (W) 1,133 ? -18.4°
Drops below altitude 10° 01:00:28 10° 324° (NW) 1,926 ? -18.2°
Sets 01:02:54 0° 336° (NNW) 2,834 ? -18.0°
